Time,TemperatureF,DewpointF,PressureIn,WindDirection,WindDirectionDegrees,WindSpeedMPH,WindSpeedGustMPH,Humidity,HourlyPrecipIn,Conditions,Clouds,dailyrainin,SoftwareType,DateUTC
2013-08-09 00:01:00,71.4,70.5,30.04,WNW,294,0.0,0.0,97,13.58,,,23.36,meteohub,2013-08-09 04:01:00,
2013-08-09 00:02:00,71.4,70.5,30.04,WNW,294,0.0,0.0,97,13.58,,,23.36,meteohub,2013-08-09 04:02:00,
2013-08-09 00:03:00,71.4,70.5,30.04,WNW,294,0.0,0.0,97,13.58,,,23.36,meteohub,2013-08-09 04:03:00,
2013-08-09 00:04:00,71.4,70.5,30.04,WNW,294,0.0,0.0,97,13.58,,,23.36,meteohub,2013-08-09 04:04:00,
2013-08-09 00:10:00,71.4,70.5,30.04,WNW,294,0.0,0.0,97,13.14,,,24.12,meteohub,2013-08-09 04:10:00,
2013-08-09 00:15:00,71.4,70.5,30.04,WNW,294,0.0,0.0,97,13.38,,,25.56,meteohub,2013-08-09 04:15:00,
2013-08-09 00:20:00,71.6,70.7,30.04,WNW,294,0.0,0.0,97,13.66,,,26.92,meteohub,2013-08-09 04:20:00,
2013-08-09 00:25:00,71.6,70.7,30.04,WNW,294,0.0,0.0,97,13.52,,,29.08,meteohub,2013-08-09 04:25:00,
2013-08-09 00:30:00,71.6,70.7,30.03,WNW,294,0.0,0.0,97,13.04,,,29.80,meteohub,2013-08-09 04:30:00,
2013-08-09 00:35:00,71.8,70.9,30.03,WNW,294,0.0,0.0,97,13.52,,,31.36,meteohub,2013-08-09 04:35:00,
2013-08-09 00:40:00,71.8,70.9,30.03,WNW,294,0.0,0.0,97,13.88,,,32.80,meteohub,2013-08-09 04:40:00,
2013-08-09 00:45:00,71.8,70.9,30.03,WNW,294,0.0,0.0,97,13.28,,,33.52,meteohub,2013-08-09 04:45:00,
2013-08-09 00:51:00,71.8,70.9,30.03,WNW,294,0.0,0.0,97,13.40,,,34.84,meteohub,2013-08-09 04:51:00,
2013-08-09 00:56:00,71.8,70.9,30.03,WNW,294,0.0,0.0,97,13.76,,,36.28,meteohub,2013-08-09 04:56:00,
2013-08-09 01:01:00,71.8,70.9,30.03,WNW,294,0.0,0.0,97,13.28,,,37.00,meteohub,2013-08-09 05:01:00,
2013-08-09 01:06:00,72.0,71.1,30.03,WNW,294,0.0,0.0,97,13.64,,,38.60,meteohub,2013-08-09 05:06:00,
2013-08-09 01:11:00,72.0,71.1,30.03,WNW,294,0.0,0.0,97,13.28,,,39.32,meteohub,2013-08-09 05:11:00,
2013-08-09 01:16:00,72.0,70.7,30.03,WNW,294,0.0,0.0,96,13.60,,,40.76,meteohub,2013-08-09 05:16:00,
2013-08-09 01:21:00,72.0,70.7,30.03,WNW,294,0.0,0.0,96,13.96,,,42.20,meteohub,2013-08-09 05:21:00,
2013-08-09 01:26:00,72.0,70.7,30.03,WNW,294,0.0,0.0,96,13.36,,,42.80,meteohub,2013-08-09 05:26:00,
2013-08-09 01:31:00,72.0,70.7,30.03,WNW,294,0.0,0.0,96,13.60,,,44.24,meteohub,2013-08-09 05:31:00,
2013-08-09 01:37:00,72.0,70.7,30.02,WNW,294,0.0,0.0,96,13.96,,,45.68,meteohub,2013-08-09 05:37:00,
2013-08-09 01:42:00,72.0,70.7,30.02,WNW,294,0.0,0.0,96,13.60,,,46.52,meteohub,2013-08-09 05:42:00,
2013-08-09 01:47:00,72.0,70.7,30.02,WNW,294,0.0,0.0,96,13.84,,,47.96,meteohub,2013-08-09 05:47:00,
2013-08-09 01:52:00,72.0,70.7,30.01,WNW,294,0.0,0.0,96,13.48,,,48.68,meteohub,2013-08-09 05:52:00,
2013-08-09 01:57:00,72.1,70.9,30.01,WNW,294,0.0,0.0,96,13.60,,,50.12,meteohub,2013-08-09 05:57:00,
2013-08-09 02:02:00,72.1,70.9,30.01,WNW,294,0.0,0.0,96,13.92,,,51.56,meteohub,2013-08-09 06:02:00,
2013-08-09 02:07:00,72.1,70.9,30.01,WNW,294,0.0,0.0,96,13.44,,,52.28,meteohub,2013-08-09 06:07:00,
2013-08-09 02:12:00,72.1,70.9,30.00,WNW,294,0.0,0.0,96,13.68,,,53.72,meteohub,2013-08-09 06:12:00,
2013-08-09 02:17:00,72.1,70.9,30.00,WNW,294,0.0,0.0,96,13.20,,,54.32,meteohub,2013-08-09 06:17:00,
2013-08-09 02:22:00,72.1,70.9,30.00,WNW,294,0.0,0.0,96,13.60,,,55.92,meteohub,2013-08-09 06:22:00,
2013-08-09 02:27:00,72.1,70.9,30.01,WNW,294,0.0,0.0,96,13.84,,,57.36,meteohub,2013-08-09 06:27:00,
2013-08-09 02:32:00,72.1,70.9,30.00,WNW,294,0.0,0.0,96,13.36,,,58.08,meteohub,2013-08-09 06:32:00,
2013-08-09 02:37:00,72.1,70.9,30.00,WNW,294,0.0,0.0,96,13.59,,,59.51,meteohub,2013-08-09 06:37:00,
2013-08-09 02:42:00,72.1,70.9,30.00,WNW,294,0.0,0.0,96,13.99,,,60.99,meteohub,2013-08-09 06:42:00,
2013-08-09 02:47:00,72.1,70.9,30.00,WNW,294,0.0,0.0,96,13.51,,,61.71,meteohub,2013-08-09 06:47:00,
2013-08-09 02:52:00,72.1,70.9,30.00,WNW,294,0.0,0.0,96,13.87,,,63.15,meteohub,2013-08-09 06:52:00,
2013-08-09 02:57:00,72.1,70.9,30.00,WNW,294,0.0,0.0,96,13.39,,,63.87,meteohub,2013-08-09 06:57:00,
2013-08-09 03:02:00,72.1,70.9,29.99,WNW,294,0.0,0.0,96,13.63,,,65.31,meteohub,2013-08-09 07:02:00,
2013-08-09 03:07:00,72.1,70.9,29.99,WNW,294,0.0,0.0,96,13.99,,,66.75,meteohub,2013-08-09 07:07:00,
2013-08-09 03:12:00,72.1,70.9,29.99,WNW,294,0.0,0.0,96,13.25,,,67.21,meteohub,2013-08-09 07:12:00,
2013-08-09 03:17:00,72.1,70.9,29.99,WNW,294,0.0,0.0,96,13.04,,,68.24,meteohub,2013-08-09 07:17:00,
2013-08-09 03:22:00,72.1,70.9,29.99,WNW,294,0.0,0.0,96,13.19,,,69.59,meteohub,2013-08-09 07:22:00,
2013-08-09 03:27:00,72.1,70.9,29.99,WNW,294,0.0,0.0,96,12.23,,,69.83,meteohub,2013-08-09 07:27:00,
2013-08-09 03:32:00,72.1,70.9,29.99,WNW,294,0.0,0.0,96,12.24,,,70.91,meteohub,2013-08-09 07:32:00,
2013-08-09 03:37:00,72.1,70.9,29.99,WNW,294,0.0,0.0,96,11.76,,,71.63,meteohub,2013-08-09 07:37:00,
2013-08-09 03:43:00,72.1,70.9,29.99,WNW,294,0.0,0.0,96,11.96,,,73.07,meteohub,2013-08-09 07:43:00,
2013-08-09 03:48:00,72.1,70.9,29.99,WNW,294,0.0,0.0,96,12.32,,,74.51,meteohub,2013-08-09 07:48:00,
2013-08-09 03:53:00,72.3,71.1,29.99,WNW,294,0.0,0.0,96,11.84,,,75.23,meteohub,2013-08-09 07:53:00,
2013-08-09 03:58:00,72.3,71.1,29.99,WNW,294,0.0,0.0,96,12.08,,,76.67,meteohub,2013-08-09 07:58:00,
2013-08-09 04:03:00,72.3,71.1,29.99,WNW,294,0.0,0.0,96,12.32,,,78.11,meteohub,2013-08-09 08:03:00,
2013-08-09 04:08:00,72.3,71.1,29.99,WNW,294,0.0,0.0,96,11.96,,,78.83,meteohub,2013-08-09 08:08:00,
2013-08-09 04:13:00,72.3,71.1,29.99,WNW,294,0.0,0.0,96,12.83,,,80.27,meteohub,2013-08-09 08:13:00,
2013-08-09 04:19:00,72.3,71.1,29.99,WNW,294,0.0,0.0,96,12.27,,,80.99,meteohub,2013-08-09 08:19:00,
2013-08-09 04:24:00,72.3,71.1,29.99,WNW,294,0.0,0.0,96,12.93,,,82.55,meteohub,2013-08-09 08:24:00,
2013-08-09 04:29:00,72.3,71.1,29.99,WNW,294,0.0,0.0,96,13.59,,,83.99,meteohub,2013-08-09 08:29:00,
2013-08-09 04:34:00,72.3,71.1,29.98,WNW,294,0.0,0.0,96,13.56,,,84.71,meteohub,2013-08-09 08:34:00,
2013-08-09 04:39:00,72.5,71.2,29.98,WNW,294,0.0,0.0,96,13.68,,,86.15,meteohub,2013-08-09 08:39:00,
2013-08-09 04:44:00,72.5,71.2,29.98,WNW,294,0.0,0.0,96,13.92,,,87.47,meteohub,2013-08-09 08:44:00,
2013-08-09 04:50:00,72.5,71.2,29.98,WNW,294,0.0,0.0,96,13.68,,,89.75,meteohub,2013-08-09 08:50:00,
2013-08-09 04:55:00,72.5,71.2,29.98,WNW,294,0.0,0.0,96,13.32,,,90.47,meteohub,2013-08-09 08:55:00,
2013-08-09 05:00:00,72.5,71.2,29.98,WNW,294,0.0,0.0,96,13.68,,,91.91,meteohub,2013-08-09 09:00:00,
2013-08-09 05:05:00,72.5,71.2,29.98,WNW,294,0.0,0.0,96,13.80,,,93.23,meteohub,2013-08-09 09:05:00,
2013-08-09 05:10:00,72.5,71.2,29.98,WNW,294,0.0,0.0,96,13.48,,,94.11,meteohub,2013-08-09 09:10:00,
2013-08-09 05:15:00,72.5,71.2,29.98,WNW,294,0.0,0.0,96,13.84,,,95.55,meteohub,2013-08-09 09:15:00,
2013-08-09 05:21:00,72.5,71.2,29.98,WNW,294,0.0,0.0,96,13.21,,,96.12,meteohub,2013-08-09 09:21:00,
2013-08-09 05:26:00,72.5,71.2,29.98,WNW,294,0.0,0.0,96,12.46,,,96.57,meteohub,2013-08-09 09:26:00,
2013-08-09 05:31:00,72.5,71.2,29.98,WNW,294,0.0,0.0,96,12.45,,,97.64,meteohub,2013-08-09 09:31:00,
2013-08-09 05:36:00,72.5,71.2,29.98,WNW,294,0.0,0.0,96,11.97,,,98.48,meteohub,2013-08-09 09:36:00,
2013-08-09 05:41:00,72.5,71.2,29.98,WNW,294,0.0,0.0,96,12.33,,,99.92,meteohub,2013-08-09 09:41:00,
2013-08-09 05:47:00,72.5,71.2,29.98,WNW,294,0.0,0.0,96,12.36,,,99.99,meteohub,2013-08-09 09:47:00,
2013-08-09 05:52:00,72.3,71.1,29.98,WNW,294,0.0,0.0,96,12.00,,,99.99,meteohub,2013-08-09 09:52:00,
2013-08-09 05:57:00,72.3,71.1,29.97,WNW,294,0.0,0.0,96,12.19,,,99.99,meteohub,2013-08-09 09:57:00,
2013-08-09 06:02:00,72.3,71.1,29.98,WNW,294,0.0,0.0,96,11.71,,,99.99,meteohub,2013-08-09 10:02:00,
2013-08-09 06:07:00,72.3,71.1,29.98,WNW,294,0.0,0.0,96,12.03,,,99.99,meteohub,2013-08-09 10:07:00,
2013-08-09 06:12:00,72.3,71.1,29.98,WNW,294,0.0,0.0,96,12.27,,,99.99,meteohub,2013-08-09 10:12:00,
2013-08-09 06:17:00,72.3,71.1,29.97,WNW,294,0.0,0.0,96,11.79,,,99.99,meteohub,2013-08-09 10:17:00,
2013-08-09 06:22:00,72.3,71.4,29.97,WNW,294,0.0,0.0,97,13.02,,,99.99,meteohub,2013-08-09 10:22:00,
2013-08-09 06:27:00,72.3,71.4,29.97,WNW,294,0.0,0.0,97,13.53,,,99.99,meteohub,2013-08-09 10:27:00,
2013-08-09 06:32:00,72.3,71.4,29.97,WNW,294,0.0,0.0,97,13.30,,,99.99,meteohub,2013-08-09 10:32:00,
2013-08-09 06:37:00,72.3,71.4,29.97,WNW,294,0.0,0.0,97,13.62,,,99.99,meteohub,2013-08-09 10:37:00,
2013-08-09 06:42:00,72.3,71.4,29.97,WNW,294,0.0,0.0,97,13.26,,,99.99,meteohub,2013-08-09 10:42:00,
2013-08-09 06:47:00,72.3,71.4,29.97,WNW,294,0.0,0.0,97,13.59,,,99.99,meteohub,2013-08-09 10:47:00,
2013-08-09 06:52:00,72.3,71.4,29.97,WNW,294,0.0,0.0,97,13.87,,,99.99,meteohub,2013-08-09 10:52:00,
2013-08-09 06:57:00,72.3,71.4,29.97,WNW,294,0.0,0.0,97,13.55,,,99.99,meteohub,2013-08-09 10:57:00,
2013-08-09 07:02:00,72.3,71.4,29.96,WNW,294,0.0,0.0,97,13.88,,,99.99,meteohub,2013-08-09 11:02:00,
2013-08-09 07:07:00,72.3,71.4,29.97,WNW,294,0.0,0.0,97,13.07,,,99.99,meteohub,2013-08-09 11:07:00,
2013-08-09 07:12:00,72.3,71.4,29.96,WNW,294,0.0,0.0,97,12.31,,,99.99,meteohub,2013-08-09 11:12:00,
2013-08-09 07:17:00,72.3,71.4,29.96,WNW,294,0.0,0.0,97,12.29,,,99.99,meteohub,2013-08-09 11:17:00,
2013-08-09 07:22:00,72.3,71.4,29.96,WNW,294,0.0,0.0,97,11.81,,,99.99,meteohub,2013-08-09 11:22:00,
2013-08-09 07:27:00,72.5,72.0,29.96,WNW,294,0.0,0.0,98,12.05,,,99.99,meteohub,2013-08-09 11:27:00,
2013-08-09 07:32:00,72.5,72.0,29.96,WNW,294,0.0,0.0,98,12.40,,,99.99,meteohub,2013-08-09 11:32:00,
2013-08-09 07:36:00,72.5,72.0,29.96,WNW,294,0.0,0.0,98,11.84,,,99.99,meteohub,2013-08-09 11:36:00,
2013-08-09 07:41:00,72.5,72.0,29.96,WNW,294,0.0,0.0,98,12.20,,,99.99,meteohub,2013-08-09 11:41:00,
2013-08-09 07:47:00,72.5,72.0,29.96,WNW,294,0.0,0.0,98,11.72,,,99.99,meteohub,2013-08-09 11:47:00,
2013-08-09 07:52:00,72.5,72.0,29.96,WNW,294,0.0,0.0,98,11.84,,,99.99,meteohub,2013-08-09 11:52:00,
2013-08-09 07:57:00,72.3,71.8,29.96,WNW,294,0.0,0.0,98,11.89,,,99.99,meteohub,2013-08-09 11:57:00,
2013-08-09 08:02:00,72.5,72.0,29.95,WNW,294,0.0,0.0,98,11.48,,,99.99,meteohub,2013-08-09 12:02:00,
2013-08-09 08:07:00,72.5,72.0,29.95,WNW,294,0.0,0.0,98,12.47,,,99.99,meteohub,2013-08-09 12:07:00,
2013-08-09 08:12:00,72.5,72.0,29.95,WNW,294,0.0,0.0,98,13.49,,,99.99,meteohub,2013-08-09 12:12:00,
2013-08-09 08:17:00,72.5,72.0,29.95,WNW,294,0.0,0.0,98,13.02,,,99.99,meteohub,2013-08-09 12:17:00,
2013-08-09 08:22:00,72.5,72.0,29.95,WNW,294,0.0,0.0,98,13.26,,,99.99,meteohub,2013-08-09 12:22:00,
2013-08-09 08:27:00,72.5,72.0,29.95,WNW,294,0.0,0.0,98,12.90,,,99.99,meteohub,2013-08-09 12:27:00,
2013-08-09 08:32:00,72.7,72.1,29.95,WNW,294,0.0,0.0,98,12.19,,,99.99,meteohub,2013-08-09 12:32:00,
2013-08-09 08:37:00,72.5,72.0,29.94,WNW,294,0.0,0.0,98,12.28,,,99.99,meteohub,2013-08-09 12:37:00,
2013-08-09 08:42:00,72.5,72.0,29.94,WNW,294,0.0,0.0,98,11.75,,,99.99,meteohub,2013-08-09 12:42:00,
2013-08-09 08:47:00,72.7,72.1,29.94,WNW,294,0.0,0.0,98,11.29,,,99.99,meteohub,2013-08-09 12:47:00,
2013-08-09 08:52:00,72.7,72.1,29.94,WNW,294,0.0,0.0,98,11.03,,,99.99,meteohub,2013-08-09 12:52:00,
2013-08-09 08:57:00,72.7,72.1,29.94,WNW,294,0.0,0.0,98,10.78,,,99.99,meteohub,2013-08-09 12:57:00,
2013-08-09 09:03:00,72.7,72.1,29.93,WNW,294,0.0,0.0,98,10.82,,,99.99,meteohub,2013-08-09 13:03:00,
2013-08-09 09:08:00,72.7,72.1,29.93,WNW,294,0.0,0.0,98,9.77,,,99.99,meteohub,2013-08-09 13:08:00,
2013-08-09 09:13:00,72.7,72.3,29.92,WNW,294,0.0,0.0,99,9.54,,,99.99,meteohub,2013-08-09 13:13:00,
2013-08-09 09:18:00,72.7,72.3,29.92,WNW,294,0.0,0.0,99,8.44,,,99.99,meteohub,2013-08-09 13:18:00,
2013-08-09 09:23:00,72.9,72.3,29.92,WNW,294,0.0,0.0,98,7.52,,,99.99,meteohub,2013-08-09 13:23:00,
2013-08-09 09:28:00,72.9,72.3,29.92,WNW,294,0.0,0.0,98,7.82,,,99.99,meteohub,2013-08-09 13:28:00,
2013-08-09 09:33:00,72.9,72.5,29.92,WNW,294,0.0,0.0,99,7.86,,,99.99,meteohub,2013-08-09 13:33:00,
2013-08-09 09:38:00,72.9,72.3,29.92,WNW,294,0.0,0.0,98,7.76,,,99.99,meteohub,2013-08-09 13:38:00,
2013-08-09 09:43:00,72.9,72.3,29.92,WNW,294,0.0,0.0,98,7.44,,,99.99,meteohub,2013-08-09 13:43:00,
2013-08-09 09:48:00,72.9,72.3,29.91,WNW,294,0.0,0.0,98,6.93,,,99.99,meteohub,2013-08-09 13:48:00,
2013-08-09 09:53:00,72.9,72.5,29.91,WNW,294,0.0,0.0,99,6.29,,,99.99,meteohub,2013-08-09 13:53:00,
2013-08-09 09:58:00,72.9,72.5,29.91,WNW,294,0.0,0.0,99,5.85,,,99.99,meteohub,2013-08-09 13:58:00,
2013-08-09 10:04:00,73.0,72.7,29.90,WNW,294,0.0,0.0,99,6.34,,,99.99,meteohub,2013-08-09 14:04:00,
2013-08-09 10:09:00,73.0,72.7,29.91,WNW,294,0.0,0.0,99,7.26,,,99.99,meteohub,2013-08-09 14:09:00,
2013-08-09 10:14:00,73.0,72.7,29.91,WNW,294,0.0,0.0,99,6.68,,,99.99,meteohub,2013-08-09 14:14:00,
2013-08-09 10:19:00,73.0,72.7,29.90,WNW,294,0.0,0.0,99,7.31,,,99.99,meteohub,2013-08-09 14:19:00,
2013-08-09 10:24:00,73.0,72.7,29.90,WNW,294,0.0,0.0,99,6.88,,,99.99,meteohub,2013-08-09 14:24:00,
2013-08-09 10:29:00,73.0,72.5,29.90,WNW,294,0.0,0.0,98,6.72,,,99.99,meteohub,2013-08-09 14:29:00,
2013-08-09 10:34:00,73.0,72.7,29.90,WNW,294,0.0,0.0,99,7.64,,,99.99,meteohub,2013-08-09 14:34:00,
2013-08-09 10:39:00,73.0,72.7,29.90,WNW,294,0.0,0.0,99,7.76,,,99.99,meteohub,2013-08-09 14:39:00,
2013-08-09 10:44:00,73.0,72.7,29.90,WNW,294,0.0,0.0,99,8.28,,,99.99,meteohub,2013-08-09 14:44:00,
2013-08-09 10:49:00,73.0,72.7,29.90,WNW,294,0.0,0.0,99,9.34,,,99.99,meteohub,2013-08-09 14:49:00,
2013-08-09 10:54:00,73.0,72.7,29.89,WNW,294,0.0,0.0,99,9.03,,,99.99,meteohub,2013-08-09 14:54:00,
2013-08-09 10:59:00,73.0,72.7,29.89,WNW,294,0.0,0.0,99,8.28,,,99.99,meteohub,2013-08-09 14:59:00,
2013-08-09 11:04:00,73.0,72.7,29.89,WNW,294,0.0,0.0,99,7.24,,,99.99,meteohub,2013-08-09 15:04:00,
2013-08-09 11:10:00,73.2,72.9,29.89,WNW,294,0.0,0.0,99,7.90,,,99.99,meteohub,2013-08-09 15:10:00,
2013-08-09 11:15:00,73.2,72.9,29.89,WNW,294,0.0,0.0,99,8.44,,,99.99,meteohub,2013-08-09 15:15:00,
2013-08-09 11:20:00,73.2,72.9,29.88,WNW,294,0.0,0.0,99,9.14,,,99.99,meteohub,2013-08-09 15:20:00,
2013-08-09 11:25:00,73.2,72.9,29.88,WNW,294,0.0,0.0,99,9.48,,,99.99,meteohub,2013-08-09 15:25:00,
2013-08-09 11:30:00,73.2,72.9,29.88,WNW,294,0.0,0.0,99,9.12,,,99.99,meteohub,2013-08-09 15:30:00,
2013-08-09 11:35:00,73.2,72.9,29.87,WNW,294,0.0,0.0,99,9.48,,,99.99,meteohub,2013-08-09 15:35:00,
2013-08-09 11:40:00,73.2,72.9,29.87,WNW,294,0.0,0.0,99,9.10,,,99.99,meteohub,2013-08-09 15:40:00,
2013-08-09 11:45:00,73.2,72.9,29.87,WNW,294,0.0,0.0,99,9.84,,,99.99,meteohub,2013-08-09 15:45:00,
2013-08-09 11:51:00,73.2,72.9,29.87,WNW,294,0.0,0.0,99,11.27,,,99.99,meteohub,2013-08-09 15:51:00,
2013-08-09 11:56:00,73.0,72.7,29.87,WNW,294,0.0,0.0,99,11.58,,,99.99,meteohub,2013-08-09 15:56:00,
2013-08-09 12:01:00,73.0,72.7,29.86,WNW,294,0.0,0.0,99,11.60,,,99.99,meteohub,2013-08-09 16:01:00,
2013-08-09 12:06:00,73.0,72.7,29.86,WNW,294,0.0,0.0,99,10.42,,,99.99,meteohub,2013-08-09 16:06:00,
2013-08-09 12:11:00,73.0,72.7,29.85,WNW,294,0.0,0.0,99,9.43,,,99.99,meteohub,2013-08-09 16:11:00,
2013-08-09 12:17:00,73.0,72.7,29.85,WNW,294,0.0,0.0,99,9.19,,,99.99,meteohub,2013-08-09 16:17:00,
2013-08-09 12:22:00,73.0,72.7,29.85,WNW,294,0.0,0.0,99,8.49,,,99.99,meteohub,2013-08-09 16:22:00,
2013-08-09 12:27:00,73.0,72.7,29.84,WNW,294,0.0,0.0,99,7.29,,,99.99,meteohub,2013-08-09 16:27:00,
2013-08-09 12:32:00,73.0,72.7,29.84,WNW,294,0.0,0.0,99,6.21,,,99.99,meteohub,2013-08-09 16:32:00,
2013-08-09 12:37:00,73.2,72.9,29.83,WNW,294,0.0,0.0,99,6.33,,,99.99,meteohub,2013-08-09 16:37:00,
2013-08-09 12:42:00,73.2,72.9,29.83,WNW,294,0.0,0.0,99,6.81,,,99.99,meteohub,2013-08-09 16:42:00,
2013-08-09 12:47:00,73.6,73.2,29.83,WNW,294,0.0,0.0,99,6.15,,,99.99,meteohub,2013-08-09 16:47:00,
2013-08-09 12:52:00,73.6,73.2,29.83,WNW,294,0.0,0.0,99,5.05,,,99.99,meteohub,2013-08-09 16:52:00,
2013-08-09 12:57:00,73.6,73.2,29.83,WNW,294,0.0,0.0,99,4.76,,,99.99,meteohub,2013-08-09 16:57:00,
2013-08-09 13:02:00,73.6,73.2,29.83,WNW,294,0.0,0.0,99,4.59,,,99.99,meteohub,2013-08-09 17:02:00,
2013-08-09 13:07:00,73.8,73.4,29.83,WNW,294,0.0,0.0,99,4.59,,,99.99,meteohub,2013-08-09 17:07:00,
2013-08-09 13:12:00,73.8,73.4,29.83,WNW,294,0.0,0.0,99,3.90,,,99.99,meteohub,2013-08-09 17:12:00,
2013-08-09 13:17:00,73.8,73.4,29.83,WNW,294,0.0,0.0,99,3.53,,,99.99,meteohub,2013-08-09 17:17:00,
2013-08-09 13:22:00,73.9,73.6,29.83,WNW,294,0.0,0.0,99,3.53,,,99.99,meteohub,2013-08-09 17:22:00,
2013-08-09 13:27:00,73.8,73.4,29.83,WNW,294,0.0,0.0,99,3.53,,,99.99,meteohub,2013-08-09 17:27:00,
2013-08-09 13:32:00,73.9,73.6,29.83,WNW,294,0.0,0.0,99,2.81,,,99.99,meteohub,2013-08-09 17:32:00,
2013-08-09 13:37:00,73.9,73.6,29.82,WNW,294,0.0,0.0,99,1.61,,,99.99,meteohub,2013-08-09 17:37:00,
2013-08-09 13:42:00,74.1,73.8,29.82,WNW,294,0.0,0.0,99,0.53,,,99.99,meteohub,2013-08-09 17:42:00,
2013-08-09 13:47:00,74.1,73.8,29.82,WNW,294,0.0,0.0,99,0.01,,,99.99,meteohub,2013-08-09 17:47:00,
2013-08-09 13:52:00,73.9,73.6,29.81,WNW,294,0.0,0.0,99,0.00,,,99.99,meteohub,2013-08-09 17:52:00,
2013-08-09 13:57:00,74.1,73.8,29.81,WNW,294,0.0,0.0,99,0.81,,,99.99,meteohub,2013-08-09 17:57:00,
2013-08-09 14:02:00,74.3,73.9,29.81,WNW,294,0.0,0.0,99,2.09,,,99.99,meteohub,2013-08-09 18:02:00,
2013-08-09 14:07:00,74.7,74.3,29.81,WNW,294,0.0,0.0,99,2.27,,,99.99,meteohub,2013-08-09 18:07:00,
2013-08-09 14:12:00,74.8,74.5,29.81,WNW,294,0.0,0.0,99,2.27,,,99.99,meteohub,2013-08-09 18:12:00,
2013-08-09 14:17:00,75.2,74.8,29.81,WNW,294,0.0,0.0,99,2.27,,,99.99,meteohub,2013-08-09 18:17:00,
2013-08-09 14:22:00,75.7,75.4,29.81,WNW,294,0.0,0.0,99,2.27,,,99.99,meteohub,2013-08-09 18:22:00,
2013-08-09 14:27:00,75.7,75.2,29.81,WNW,294,0.0,0.0,98,2.27,,,99.99,meteohub,2013-08-09 18:27:00,
2013-08-09 14:32:00,75.6,74.7,29.81,WNW,294,0.0,0.0,97,2.27,,,99.99,meteohub,2013-08-09 18:32:00,
2013-08-09 14:37:00,75.6,74.7,29.81,WNW,294,0.0,0.0,97,2.27,,,99.99,meteohub,2013-08-09 18:37:00,
2013-08-09 14:42:00,75.4,74.5,29.80,WNW,294,0.0,0.0,97,2.27,,,99.99,meteohub,2013-08-09 18:42:00,
2013-08-09 14:47:00,75.4,74.1,29.81,WNW,294,0.0,0.0,96,2.27,,,99.99,meteohub,2013-08-09 18:47:00,
2013-08-09 14:53:00,75.0,73.8,29.81,WNW,294,0.0,0.0,96,1.94,,,99.99,meteohub,2013-08-09 18:53:00,
2013-08-09 14:58:00,74.8,73.9,29.81,WNW,294,0.0,0.0,97,0.74,,,99.99,meteohub,2013-08-09 18:58:00,
2013-08-09 15:03:00,74.8,73.9,29.81,WNW,294,0.0,0.0,97,0.15,,,99.99,meteohub,2013-08-09 19:03:00,
2013-08-09 15:08:00,74.7,73.8,29.81,WNW,294,0.0,0.0,97,0.69,,,99.99,meteohub,2013-08-09 19:08:00,
2013-08-09 15:13:00,74.7,74.1,29.80,WNW,294,0.0,0.0,98,1.62,,,99.99,meteohub,2013-08-09 19:13:00,
2013-08-09 15:18:00,74.5,73.9,29.80,WNW,294,0.0,0.0,98,2.34,,,99.99,meteohub,2013-08-09 19:18:00,
2013-08-09 15:24:00,74.7,74.1,29.80,WNW,294,0.0,0.0,98,3.90,,,99.99,meteohub,2013-08-09 19:24:00,
2013-08-09 15:29:00,74.8,74.3,29.80,WNW,294,0.0,0.0,98,4.62,,,99.99,meteohub,2013-08-09 19:29:00,
2013-08-09 15:34:00,74.8,74.3,29.80,WNW,294,0.0,0.0,98,6.06,,,99.99,meteohub,2013-08-09 19:34:00,
2013-08-09 15:39:00,74.8,74.3,29.80,WNW,294,0.0,0.0,98,7.50,,,99.99,meteohub,2013-08-09 19:39:00,
2013-08-09 15:44:00,74.8,74.3,29.80,WNW,294,0.0,0.0,98,8.22,,,99.99,meteohub,2013-08-09 19:44:00,
2013-08-09 15:49:00,74.8,74.3,29.80,WNW,294,0.0,0.0,98,9.54,,,99.99,meteohub,2013-08-09 19:49:00,
2013-08-09 15:54:00,74.8,74.3,29.80,WNW,294,0.0,0.0,98,10.98,,,99.99,meteohub,2013-08-09 19:54:00,
2013-08-09 15:59:00,75.4,75.0,29.80,WNW,294,0.0,0.0,99,11.61,,,99.99,meteohub,2013-08-09 19:59:00,
2013-08-09 16:05:00,75.6,75.2,29.80,WNW,294,0.0,0.0,99,12.83,,,99.99,meteohub,2013-08-09 20:05:00,
2013-08-09 16:10:00,75.6,75.2,29.80,WNW,294,0.0,0.0,99,11.10,,,99.99,meteohub,2013-08-09 20:10:00,
2013-08-09 16:15:00,75.6,75.0,29.80,WNW,294,0.0,0.0,98,10.50,,,99.99,meteohub,2013-08-09 20:15:00,
2013-08-09 16:20:00,75.6,75.0,29.80,WNW,294,0.0,0.0,98,9.58,,,99.99,meteohub,2013-08-09 20:20:00,
2013-08-09 16:25:00,75.7,75.2,29.79,WNW,294,0.0,0.0,98,9.76,,,99.99,meteohub,2013-08-09 20:25:00,
2013-08-09 16:30:00,75.7,75.2,29.79,WNW,294,0.0,0.0,98,9.12,,,99.99,meteohub,2013-08-09 20:30:00,
2013-08-09 16:35:00,75.6,75.0,29.79,WNW,294,0.0,0.0,98,9.13,,,99.99,meteohub,2013-08-09 20:35:00,
2013-08-09 16:40:00,75.7,75.2,29.79,WNW,294,0.0,0.0,98,8.20,,,99.99,meteohub,2013-08-09 20:40:00,
2013-08-09 16:46:00,75.4,74.1,29.80,WNW,294,0.0,0.0,96,7.02,,,99.99,meteohub,2013-08-09 20:46:00,
2013-08-09 16:51:00,75.2,73.9,29.80,WNW,294,0.0,0.0,96,7.23,,,99.99,meteohub,2013-08-09 20:51:00,
2013-08-09 16:56:00,75.0,73.8,29.80,WNW,294,0.0,0.0,96,7.17,,,99.99,meteohub,2013-08-09 20:56:00,
2013-08-09 17:01:00,75.2,74.3,29.80,WNW,294,0.0,0.0,97,7.77,,,99.99,meteohub,2013-08-09 21:01:00,
2013-08-09 17:06:00,75.4,74.5,29.80,WNW,294,0.0,0.0,97,9.21,,,99.99,meteohub,2013-08-09 21:06:00,
2013-08-09 17:11:00,75.0,74.1,29.80,WNW,294,0.0,0.0,97,9.93,,,99.99,meteohub,2013-08-09 21:11:00,
2013-08-09 17:16:00,75.2,74.3,29.80,WNW,294,0.0,0.0,97,10.77,,,99.99,meteohub,2013-08-09 21:16:00,
2013-08-09 17:21:00,75.2,74.3,29.80,WNW,294,0.0,0.0,97,11.45,,,99.99,meteohub,2013-08-09 21:21:00,
2013-08-09 17:26:00,75.2,74.3,29.80,WNW,294,0.0,0.0,97,11.03,,,99.99,meteohub,2013-08-09 21:26:00,
2013-08-09 17:31:00,75.0,74.1,29.80,WNW,294,0.0,0.0,97,11.44,,,99.99,meteohub,2013-08-09 21:31:00,
2013-08-09 17:37:00,75.0,74.1,29.80,WNW,294,0.0,0.0,97,11.86,,,99.99,meteohub,2013-08-09 21:37:00,
2013-08-09 17:42:00,75.0,74.1,29.80,WNW,294,0.0,0.0,97,13.07,,,99.99,meteohub,2013-08-09 21:42:00,
2013-08-09 17:47:00,75.0,74.1,29.80,WNW,294,0.0,0.0,97,13.92,,,99.99,meteohub,2013-08-09 21:47:00,
2013-08-09 17:52:00,75.0,74.1,29.80,WNW,294,0.0,0.0,97,13.44,,,99.99,meteohub,2013-08-09 21:52:00,
2013-08-09 17:57:00,75.0,74.1,29.80,WNW,294,0.0,0.0,97,13.68,,,99.99,meteohub,2013-08-09 21:57:00,
2013-08-09 18:02:00,75.0,74.1,29.80,WNW,294,0.0,0.0,97,13.84,,,99.99,meteohub,2013-08-09 22:02:00,
2013-08-09 18:07:00,75.0,74.1,29.80,WNW,294,0.0,0.0,97,13.48,,,99.99,meteohub,2013-08-09 22:07:00,
2013-08-09 18:12:00,75.0,74.1,29.80,WNW,294,0.0,0.0,97,13.27,,,99.99,meteohub,2013-08-09 22:12:00,
2013-08-09 18:17:00,75.0,74.1,29.80,WNW,294,0.0,0.0,97,12.56,,,99.99,meteohub,2013-08-09 22:17:00,
2013-08-09 18:22:00,74.8,73.9,29.80,WNW,294,0.0,0.0,97,12.16,,,99.99,meteohub,2013-08-09 22:22:00,
2013-08-09 18:27:00,74.8,73.9,29.80,WNW,294,0.0,0.0,97,10.96,,,99.99,meteohub,2013-08-09 22:27:00,
2013-08-09 18:32:00,74.8,73.9,29.80,WNW,294,0.0,0.0,97,9.76,,,99.99,meteohub,2013-08-09 22:32:00,
2013-08-09 18:37:00,74.8,73.9,29.81,WNW,294,0.0,0.0,97,9.15,,,99.99,meteohub,2013-08-09 22:37:00,
2013-08-09 18:42:00,74.7,73.8,29.80,WNW,294,0.0,0.0,97,8.61,,,99.99,meteohub,2013-08-09 22:42:00,
2013-08-09 18:47:00,74.7,73.8,29.80,WNW,294,0.0,0.0,97,7.41,,,99.99,meteohub,2013-08-09 22:47:00,
2013-08-09 18:52:00,74.7,74.1,29.80,WNW,294,0.0,0.0,98,6.21,,,99.99,meteohub,2013-08-09 22:52:00,
2013-08-09 18:57:00,74.5,73.9,29.80,WNW,294,0.0,0.0,98,5.13,,,99.99,meteohub,2013-08-09 22:57:00,
2013-08-09 19:03:00,74.5,73.9,29.80,WNW,294,0.0,0.0,98,4.01,,,99.99,meteohub,2013-08-09 23:03:00,
2013-08-09 19:08:00,74.5,73.9,29.81,WNW,294,0.0,0.0,98,2.83,,,99.99,meteohub,2013-08-09 23:08:00,
2013-08-09 19:13:00,74.5,73.9,29.81,WNW,294,0.0,0.0,98,2.34,,,99.99,meteohub,2013-08-09 23:13:00,
2013-08-09 19:18:00,74.5,73.9,29.80,WNW,294,0.0,0.0,98,1.60,,,99.99,meteohub,2013-08-09 23:18:00,
2013-08-09 19:23:00,74.3,73.8,29.81,WNW,294,0.0,0.0,98,1.81,,,99.99,meteohub,2013-08-09 23:23:00,
2013-08-09 19:28:00,74.1,73.6,29.81,WNW,294,0.0,0.0,98,1.81,,,99.99,meteohub,2013-08-09 23:28:00,
2013-08-09 19:33:00,74.1,73.6,29.81,WNW,294,0.0,0.0,98,2.71,,,99.99,meteohub,2013-08-09 23:33:00,
2013-08-09 19:39:00,73.9,73.4,29.82,WNW,294,0.0,0.0,98,2.48,,,99.99,meteohub,2013-08-09 23:39:00,
2013-08-09 19:44:00,73.9,73.4,29.82,WNW,294,0.0,0.0,98,3.74,,,99.99,meteohub,2013-08-09 23:44:00,
2013-08-09 19:49:00,73.6,72.7,29.82,WNW,294,0.0,0.0,97,4.33,,,99.99,meteohub,2013-08-09 23:49:00,
2013-08-09 19:54:00,73.6,72.7,29.82,WNW,294,0.0,0.0,97,5.77,,,99.99,meteohub,2013-08-09 23:54:00,
2013-08-09 19:59:00,73.4,72.9,29.82,WNW,294,0.0,0.0,98,7.09,,,99.99,meteohub,2013-08-09 23:59:00,
2013-08-09 20:05:00,73.2,72.7,29.81,WNW,294,0.0,0.0,98,7.09,,,99.99,meteohub,2013-08-10 00:05:00,
2013-08-09 20:10:00,73.2,72.7,29.81,WNW,294,0.0,0.0,98,10.19,,,1.85,meteohub,2013-08-10 00:10:00,
2013-08-09 20:15:00,73.0,72.5,29.81,WNW,294,0.0,0.0,98,10.57,,,2.55,meteohub,2013-08-10 00:15:00,
2013-08-09 20:20:00,73.0,72.5,29.81,WNW,294,0.0,0.0,98,11.84,,,3.99,meteohub,2013-08-10 00:20:00,
2013-08-09 20:25:00,73.0,72.5,29.81,WNW,294,0.0,0.0,98,12.44,,,4.59,meteohub,2013-08-10 00:25:00,
2013-08-09 20:30:00,72.9,72.3,29.81,WNW,294,0.0,0.0,98,12.74,,,6.03,meteohub,2013-08-10 00:30:00,
2013-08-09 20:35:00,72.9,72.3,29.81,WNW,294,0.0,0.0,98,13.10,,,7.59,meteohub,2013-08-10 00:35:00,
2013-08-09 20:41:00,72.7,72.1,29.81,WNW,294,0.0,0.0,98,12.74,,,8.31,meteohub,2013-08-10 00:41:00,
2013-08-09 20:46:00,72.7,72.1,29.81,WNW,294,0.0,0.0,98,13.11,,,9.75,meteohub,2013-08-10 00:46:00,
2013-08-09 20:51:00,72.5,72.0,29.81,WNW,294,0.0,0.0,98,12.52,,,10.35,meteohub,2013-08-10 00:51:00,
2013-08-09 20:56:00,72.3,71.8,29.81,WNW,294,0.0,0.0,98,12.99,,,11.91,meteohub,2013-08-10 00:56:00,
2013-08-09 21:01:00,72.1,71.6,29.81,WNW,294,0.0,0.0,98,13.23,,,13.35,meteohub,2013-08-10 01:01:00,
2013-08-09 21:06:00,72.1,71.6,29.81,WNW,294,0.0,0.0,98,12.75,,,14.07,meteohub,2013-08-10 01:06:00,
2013-08-09 21:11:00,72.0,71.4,29.81,WNW,294,0.0,0.0,98,12.88,,,14.73,meteohub,2013-08-10 01:11:00,
2013-08-09 21:16:00,72.0,71.4,29.81,WNW,294,0.0,0.0,98,12.87,,,15.90,meteohub,2013-08-10 01:16:00,
2013-08-09 21:21:00,71.8,71.2,29.81,WNW,294,0.0,0.0,98,12.51,,,16.74,meteohub,2013-08-10 01:21:00,
2013-08-09 21:26:00,71.8,71.2,29.81,WNW,294,0.0,0.0,98,12.87,,,18.18,meteohub,2013-08-10 01:26:00,
2013-08-09 21:32:00,71.6,71.1,29.81,WNW,294,0.0,0.0,98,12.36,,,18.87,meteohub,2013-08-10 01:32:00,
2013-08-09 21:37:00,71.4,70.9,29.81,WNW,294,0.0,0.0,98,12.31,,,20.02,meteohub,2013-08-10 01:37:00,
2013-08-09 21:42:00,71.4,70.9,29.81,WNW,294,0.0,0.0,98,12.55,,,21.46,meteohub,2013-08-10 01:42:00,
2013-08-09 21:47:00,71.4,70.9,29.81,WNW,294,0.0,0.0,98,11.60,,,21.59,meteohub,2013-08-10 01:47:00,
2013-08-09 21:52:00,71.4,70.9,29.81,WNW,294,0.0,0.0,98,10.52,,,21.59,meteohub,2013-08-10 01:52:00,
2013-08-09 21:57:00,71.4,70.9,29.81,WNW,294,0.0,0.0,98,9.20,,,21.59,meteohub,2013-08-10 01:57:00,
2013-08-09 22:02:00,71.4,71.1,29.81,WNW,294,0.0,0.0,99,8.00,,,21.59,meteohub,2013-08-10 02:02:00,
2013-08-09 22:07:00,71.4,71.1,29.81,WNW,294,0.0,0.0,99,6.92,,,21.59,meteohub,2013-08-10 02:07:00,
2013-08-09 22:12:00,71.2,70.9,29.81,WNW,294,0.0,0.0,99,6.65,,,21.59,meteohub,2013-08-10 02:12:00,
2013-08-09 22:17:00,71.2,70.9,29.81,WNW,294,0.0,0.0,99,5.45,,,21.59,meteohub,2013-08-10 02:17:00,
2013-08-09 22:22:00,71.2,70.9,29.81,WNW,294,0.0,0.0,99,4.37,,,21.59,meteohub,2013-08-10 02:22:00,
2013-08-09 22:27:00,71.2,70.9,29.81,WNW,294,0.0,0.0,99,3.17,,,21.59,meteohub,2013-08-10 02:27:00,
2013-08-09 22:32:00,71.2,70.9,29.82,WNW,294,0.0,0.0,99,2.21,,,21.59,meteohub,2013-08-10 02:32:00,
2013-08-09 22:37:00,71.2,70.9,29.82,WNW,294,0.0,0.0,99,1.21,,,21.59,meteohub,2013-08-10 02:37:00,
2013-08-09 22:42:00,71.2,70.9,29.81,WNW,294,0.0,0.0,99,0.01,,,21.59,meteohub,2013-08-10 02:42:00,
2013-08-09 22:47:00,71.4,71.1,29.81,WNW,294,0.0,0.0,99,0.00,,,21.59,meteohub,2013-08-10 02:47:00,
2013-08-09 22:51:00,71.2,70.9,29.82,WNW,294,0.0,0.0,99,0.00,,,21.59,meteohub,2013-08-10 02:51:00,
2013-08-09 22:57:00,71.4,71.1,29.82,WNW,294,0.0,0.0,99,0.00,,,21.59,meteohub,2013-08-10 02:57:00,
2013-08-09 23:02:00,71.4,71.1,29.82,WNW,294,0.0,0.0,99,0.00,,,21.59,meteohub,2013-08-10 03:02:00,
2013-08-09 23:06:00,71.4,71.1,29.82,WNW,294,0.0,0.0,99,0.00,,,21.59,meteohub,2013-08-10 03:06:00,
2013-08-09 23:11:00,71.8,71.4,29.82,WNW,294,0.0,0.0,99,0.00,,,21.59,meteohub,2013-08-10 03:11:00,
2013-08-09 23:16:00,71.8,71.4,29.82,WNW,294,0.0,0.0,99,0.35,,,21.94,meteohub,2013-08-10 03:16:00,
2013-08-09 23:22:00,71.8,71.4,29.82,WNW,294,0.0,0.0,99,0.62,,,22.12,meteohub,2013-08-10 03:22:00,
2013-08-09 23:27:00,71.8,71.4,29.82,WNW,294,0.0,0.0,99,0.62,,,22.21,meteohub,2013-08-10 03:27:00,
2013-08-09 23:32:00,71.8,71.4,29.82,WNW,294,0.0,0.0,99,2.15,,,23.74,meteohub,2013-08-10 03:32:00,
2013-08-09 23:37:00,71.8,71.4,29.82,WNW,294,0.0,0.0,99,2.47,,,24.06,meteohub,2013-08-10 03:37:00,
2013-08-09 23:42:00,72.0,71.6,29.82,WNW,294,0.0,0.0,99,3.03,,,24.62,meteohub,2013-08-10 03:42:00,
2013-08-09 23:47:00,71.8,71.4,29.82,WNW,294,0.0,0.0,99,4.14,,,25.73,meteohub,2013-08-10 03:47:00,
2013-08-09 23:52:00,71.8,71.4,29.82,WNW,294,0.0,0.0,99,4.14,,,25.73,meteohub,2013-08-10 03:52:00,
2013-08-09 23:57:00,71.8,71.4,29.82,WNW,294,0.0,0.0,99,4.93,,,26.52,meteohub,2013-08-10 03:57:00,